When you browse on this site, cookies collect data to enhance your experience and personalize the content and advertising you see.
Visit our Privacy Policy to learn more. By continuing to use the site, you agree to this use of cookies and data.
  • In Austria
  • List of Countries
  • For 7 days
  • Water Temperature
  • Satellite Maps
  • Weather Map
  • News
  • Weather Widgets
  • user-avatar
    Login

    Hourly Weather Krasinek

    Today, 16 February, Saturday

    Time Temperature Precipitation Wind Pressure Humidity
    00:00 +1°C° 0 mm 3 mps 766 mmHg 92%
    01:00 +1°C° 0 mm 2 mps 766 mmHg 90%
    02:00 +1°C° 0 mm 2 mps 766 mmHg 89%
    03:00 0°C° 0 mm 3 mps 766 mmHg 87%
    04:00 0°C° 0 mm 3 mps 765 mmHg 86%
    05:00 0°C° 0 mm 3 mps 765 mmHg 84%
    06:00 0°C° 0 mm 3 mps 765 mmHg 81%
    07:00 0°C° 0 mm 3 mps 765 mmHg 79%
    08:00 0°C° 0 mm 4 mps 764 mmHg 73%
    09:00 +3°C° 0 mm 4 mps 764 mmHg 67%
    10:00 +3°C° 0 mm 5 mps 764 mmHg 61%
    11:00 +5°C° 0 mm 5 mps 763 mmHg 59%
    12:00 +6°C° 0 mm 5 mps 763 mmHg 58%
    13:00 +8°C° 0 mm 5 mps 763 mmHg 56%
    14:00 +8°C° 0 mm 5 mps 762 mmHg 57%
    15:00 +7°C° 0 mm 5 mps 762 mmHg 59%
    16:00 +7°C° 0 mm 5 mps 761 mmHg 60%
    17:00 +6°C° 0 mm 5 mps 761 mmHg 64%
    18:00 +5°C° 0 mm 5 mps 761 mmHg 67%
    19:00 +5°C° 0 mm 5 mps 761 mmHg 71%
    20:00 +3°C° 0 mm 5 mps 760 mmHg 73%
    21:00 +3°C° 0 mm 5 mps 760 mmHg 76%
    22:00 +4°C° 0 mm 4 mps 760 mmHg 78%
    23:00 +3°C° 0 mm 4 mps 760 mmHg 80%

    Tomorrow, 17 February, Sunday

    Time Temperature Precipitation Wind Pressure Humidity
    00:00 +3°C° 0 mm 4 mps 760 mmHg 82%
    01:00 +3°C° 0 mm 4 mps 760 mmHg 85%
    02:00 +3°C° 0 mm 4 mps 760 mmHg 86%
    03:00 +3°C° 0 mm 4 mps 760 mmHg 88%
    04:00 +1°C° 0 mm 4 mps 760 mmHg 89%
    05:00 +1°C° 0 mm 4 mps 760 mmHg 91%
    06:00 +1°C° 0 mm 4 mps 760 mmHg 93%
    07:00 +2°C° 0 mm 3 mps 761 mmHg 95%
    08:00 +3°C° 0 mm 4 mps 761 mmHg 95%
    09:00 +3°C° 0 mm 4 mps 761 mmHg 95%
    10:00 +4°C° 0 mm 4 mps 761 mmHg 94%
    11:00 +4°C° 0 mm 4 mps 761 mmHg 93%
    12:00 +4°C° 0 mm 4 mps 762 mmHg 91%
    13:00 +4°C° 0 mm 4 mps 762 mmHg 89%
    14:00 +4°C° 0 mm 4 mps 762 mmHg 89%
    15:00 +4°C° 0 mm 3 mps 762 mmHg 88%
    16:00 +4°C° 0 mm 3 mps 762 mmHg 88%
    17:00 +3°C° 0 mm 3 mps 762 mmHg 89%
    18:00 +4°C° 0 mm 2 mps 762 mmHg 89%
    19:00 +4°C° 0 mm 2 mps 762 mmHg 90%
    20:00 +4°C° 0 mm 2 mps 762 mmHg 91%
    21:00 +3°C° 0 mm 2 mps 762 mmHg 93%
    22:00 +4°C° 0 mm 1 mps 762 mmHg 94%
    23:00 +4°C° 0 mm 1 mps 763 mmHg 94%

    Day after tomorrow, 18 February, Monday

    Time Temperature Precipitation Wind Pressure Humidity
    00:00 +3°C° 0 mm 1 mps 763 mmHg 95%
    01:00 +3°C° 0 mm 1 mps 763 mmHg 95%
    02:00 +3°C° 0 mm 1 mps 763 mmHg 95%
    03:00 +1°C° 0 mm 2 mps 763 mmHg 95%
    04:00 +1°C° 0 mm 2 mps 762 mmHg 95%
    05:00 +1°C° 0 mm 2 mps 762 mmHg 94%
    06:00 +1°C° 0 mm 2 mps 762 mmHg 94%
    07:00 +1°C° 0 mm 2 mps 762 mmHg 94%
    08:00 +1°C° 0 mm 3 mps 762 mmHg 90%
    09:00 +3°C° 0 mm 3 mps 762 mmHg 86%
    10:00 +4°C° 0 mm 4 mps 762 mmHg 81%
    11:00 +5°C° 0 mm 4 mps 762 mmHg 78%
    12:00 +6°C° 0 mm 4 mps 762 mmHg 75%
    13:00 +7°C° 0 mm 5 mps 762 mmHg 72%
    14:00 +7°C° 0 mm 4 mps 761 mmHg 74%
    15:00 +6°C° 0 mm 4 mps 761 mmHg 77%
    16:00 +6°C° 0 mm 4 mps 760 mmHg 79%
    17:00 +5°C° 0 mm 4 mps 760 mmHg 82%
    18:00 +5°C° 0 mm 5 mps 760 mmHg 85%
    19:00 +3°C° 0 mm 5 mps 760 mmHg 88%
    20:00 +3°C° 0 mm 5 mps 760 mmHg 88%
    21:00 +3°C° 0 mm 5 mps 759 mmHg 87%
    22:00 +2°C° 0 mm 5 mps 759 mmHg 87%
    23:00 +3°C° 0 mm 4 mps 759 mmHg 86%

    19 February, Tuesday

    Time Temperature Precipitation Wind Pressure Humidity
    00:00 +1°C° 0 mm 4 mps 759 mmHg 85%
    01:00 +1°C° 0 mm 4 mps 758 mmHg 84%
    02:00 +1°C° 0 mm 4 mps 758 mmHg 84%
    03:00 0°C° 0 mm 4 mps 757 mmHg 83%
    04:00 0°C° 0 mm 4 mps 757 mmHg 82%
    05:00 0°C° 0 mm 4 mps 756 mmHg 82%
    06:00 0°C° 0 mm 5 mps 756 mmHg 82%
    07:00 0°C° 0 mm 5 mps 756 mmHg 81%
    08:00 +1°C° 0 mm 5 mps 756 mmHg 79%
    09:00 +2°C° 0 mm 6 mps 755 mmHg 76%
    10:00 +3°C° 0 mm 6 mps 755 mmHg 73%
    11:00 +4°C° 0 mm 6 mps 755 mmHg 71%
    12:00 +5°C° 0 mm 6 mps 754 mmHg 69%
    13:00 +7°C° 0 mm 6 mps 754 mmHg 66%
    14:00 +7°C° 0 mm 6 mps 754 mmHg 68%
    15:00 +7°C° 0 mm 5 mps 753 mmHg 69%
    16:00 +7°C° 0 mm 5 mps 753 mmHg 70%
    17:00 +6°C° 0.6 mm 5 mps 753 mmHg 76%
    18:00 +6°C° 0.6 mm 5 mps 753 mmHg 81%
    19:00 +5°C° 0.6 mm 5 mps 753 mmHg 87%
    20:00 +5°C° 0.1 mm 5 mps 753 mmHg 86%
    21:00 +5°C° 0.1 mm 5 mps 753 mmHg 85%
    22:00 +5°C° 0.1 mm 5 mps 753 mmHg 84%
    23:00 +3°C° 0.1 mm 6 mps 753 mmHg 84%

    20 February, Wednesday

    Time Temperature Precipitation Wind Pressure Humidity
    00:00 +3°C° 0.1 mm 6 mps 754 mmHg 83%
    01:00 +3°C° 0.1 mm 6 mps 754 mmHg 82%
    02:00 +3°C° 0.2 mm 6 mps 754 mmHg 82%
    03:00 +3°C° 0.2 mm 7 mps 754 mmHg 82%
    04:00 +3°C° 0.2 mm 7 mps 754 mmHg 82%
    05:00 +3°C° 0.1 mm 7 mps 754 mmHg 81%
    06:00 +3°C° 0.1 mm 7 mps 754 mmHg 80%
    07:00 +3°C° 0.1 mm 7 mps 754 mmHg 79%
    08:00 +3°C° 0 mm 7 mps 755 mmHg 77%
    09:00 +2°C° 0 mm 8 mps 755 mmHg 76%
    10:00 +2°C° 0 mm 8 mps 756 mmHg 74%
    11:00 +2°C° 0.1 mm 8 mps 756 mmHg 74%
    12:00 +2°C° 0.1 mm 8 mps 756 mmHg 74%
    13:00 +2°C° 0.1 mm 8 mps 757 mmHg 74%
    14:00 +2°C° 0.1 mm 8 mps 757 mmHg 75%
    15:00 +3°C° 0.1 mm 7 mps 757 mmHg 75%
    16:00 +3°C° 0.1 mm 7 mps 758 mmHg 76%
    17:00 +3°C° 0.1 mm 6 mps 758 mmHg 78%
    18:00 +3°C° 0.1 mm 6 mps 759 mmHg 80%
    19:00 +2°C° 0.1 mm 5 mps 759 mmHg 82%
    20:00 +2°C° 0.1 mm 5 mps 759 mmHg 84%
    21:00 +3°C° 0.1 mm 4 mps 760 mmHg 86%
    22:00 +3°C° 0.1 mm 3 mps 760 mmHg 88%
    23:00 +2°C° 0 mm 3 mps 760 mmHg 88%

    21 February, Thursday

    Time Temperature Precipitation Wind Pressure Humidity
    00:00 +3°C° 0 mm 2 mps 760 mmHg 89%
    01:00 +3°C° 0 mm 1 mps 760 mmHg 90%
    02:00 +3°C° 0.1 mm 1 mps 760 mmHg 89%
    03:00 +3°C° 0.1 mm 1 mps 760 mmHg 89%
    04:00 +3°C° 0.1 mm 1 mps 760 mmHg 88%
    05:00 +3°C° 0.3 mm 1 mps 760 mmHg 87%
    06:00 +2°C° 0.3 mm 2 mps 761 mmHg 86%
    07:00 +1°C° 0.3 mm 2 mps 761 mmHg 85%
    08:00 0°C° 0.4 mm 3 mps 761 mmHg 87%
    09:00 0°C° 0.4 mm 3 mps 761 mmHg 88%
    10:00 0°C° 0.4 mm 3 mps 761 mmHg 90%
    11:00 +1°C° 0.3 mm 3 mps 761 mmHg 91%
    12:00 +1°C° 0.3 mm 3 mps 761 mmHg 92%
    13:00 +3°C° 0.3 mm 2 mps 761 mmHg 93%
    14:00 +3°C° 0.2 mm 2 mps 760 mmHg 94%
    15:00 +3°C° 0.2 mm 2 mps 760 mmHg 94%
    16:00 +4°C° 0.2 mm 2 mps 760 mmHg 95%
    17:00 +4°C° 0.3 mm 2 mps 760 mmHg 96%
    18:00 +4°C° 0.3 mm 2 mps 760 mmHg 96%
    19:00 +4°C° 0.3 mm 2 mps 760 mmHg 97%
    20:00 +4°C° 0.1 mm 2 mps 760 mmHg 97%
    21:00 +5°C° 0.1 mm 1 mps 759 mmHg 97%
    22:00 +5°C° 0.1 mm 1 mps 759 mmHg 98%
    23:00 +4°C° 0.4 mm 1 mps 760 mmHg 98%
    Show more